[[{"header":{"parameterUnit":"m.s-1","parameterCategory":1,"la1":30.2991,"la2":30.254,"lo1":-89.0895,"lo2":-89.0444,"dy":0.0017,"dx":0.0017,"nx":28,"ny":28,"refTime":"2026-02-17T03:00:00:Z","depth":0,"parameterNumber":2,"parameterNumberName":"U-component_of_WINDS"},"data":[0,0,0,0,0,0,0,0,0,0,0,0,0,0,0,0,0,0,0,0,0,0,0,0,0,0,0,0,0,0,0,0,0,0,0,0,0,0,0,0,0,0,0,0,0,0,0,0,0,0,0,0,0,0,0,0,0,0,-3.9082,-3.9083,0,-3.9225,-3.9226,-3.9228,-3.9208,-3.9205,-3.9203,-3.9201,-3.9349,-3.9355,-3.9361,0,0,0,0,0,0,0,0,0,0,0,0,0,-3.8795,-3.8801,-3.9081,-3.9083,-3.9085,-3.9224,-3.9226,-3.9228,-3.9208,-3.9205,-3.9202,-3.92,-3.9347,-3.9354,-3.9361,0,0,0,0,0,0,0,0,0,0,0,0,0,-3.8927,-3.8802,-3.9081,-3.9092,-3.9094,-3.9224,-3.9227,-3.9229,-3.9209,-3.9205,-3.9202,-3.9198,-3.9344,-3.9353,-3.9362,-3.9491,0,0,-3.9391,-3.9395,0,0,0,0,0,0,0,0,-3.892,-3.8938,-3.9088,-3.9091,-3.9094,-3.9195,-3.918,-3.9317,-3.921,-3.9165,-3.9201,-3.9197,-3.93,-3.9313,-3.9348,-3.9498,-3.9504,-3.9391,-3.9397,-3.9401,-3.9404,0,0,0,0,0,0,0,-3.8911,-3.8931,-3.9138,-3.9091,-3.9094,-3.9091,-3.9106,-3.9206,-3.9251,-3.9169,-3.9168,-3.9185,-3.9301,-3.9339,-3.9351,-3.9507,-3.9391,-3.9399,-3.9405,-3.9409,-3.9774,-3.9778,0,0,0,0,0,0,-3.8898,-3.8924,-3.9134,-3.9142,-3.8996,-3.9099,-3.9116,-3.9166,-3.925,-3.9259,-3.9188,-3.9183,-3.9325,-3.934,-3.9356,-3.9515,-3.9401,-3.941,-3.9415,-3.977,-3.9775,-3.978,0,0,0,0,0,0,-3.8892,-3.8917,-3.9128,-3.9033,-3.906,-3.9108,-3.9165,-3.9171,-3.9208,-3.9264,-3.9273,-3.9218,-3.9323,-3.9343,-3.9459,-3.9519,-3.9414,-3.9422,-3.9765,-3.9772,-3.9778,-3.9831,0,0,0,0,0,0,-3.8884,-3.8915,-3.8963,-3.9034,-3.9065,-3.9226,-3.9168,-3.9176,-3.9224,-3.922,-3.9294,-3.9303,-3.9321,-3.9445,-3.9468,-3.953,-3.9429,-3.976,-3.9768,-3.9776,-3.9824,-3.9838,-3.985,0,0,0,0,0,-3.8874,-3.8971,-3.8965,-3.8991,-3.9125,-3.923,-3.9247,-3.9266,-3.9229,-3.9279,-3.9316,-3.9301,-3.951,-3.9457,-3.9482,-3.9548,-3.9756,-3.9766,-3.9775,-3.9818,-3.9835,-3.985,0,0,0,0,0,0,-3.8905,-3.8981,-3.8975,-3.9098,-3.9158,-3.9226,-3.9288,-3.9283,-3.9354,-3.9347,-3.9368,-3.9385,-3.9502,-3.9537,-3.9477,-3.968,-3.9628,-3.9643,-3.9652,-3.9669,-3.9682,-3.967,-3.9437,0,0,0,0,0,-3.8926,-3.9004,-3.9066,-3.9169,-3.92,-3.924,-3.9286,-3.9295,-3.9358,-3.9383,-3.9428,-3.949,-3.957,-3.9622,-3.9698,-3.983,-3.9847,-3.9889,-3.9902,-3.9913,-3.9925,-4.0,-4.002,-3.9811,-3.9811,-3.981,0,0,-3.8971,-3.9022,-3.9069,-3.9177,-3.9224,-3.9306,-3.9261,-3.9347,-3.9409,-3.9396,-3.9508,-3.9544,-3.9615,-3.974,-3.9797,-3.9773,-3.9987,-3.9924,-3.9932,-3.9939,-4.0012,-4.0032,-4.0049,-3.9817,-3.9816,-3.9815,0,0,-3.9093,-3.9139,-3.9231,-3.9281,-3.9353,-3.938,-3.9403,-3.9473,-3.9497,-3.961,-3.9603,-3.9678,-3.9814,-3.9866,-3.991,-4.0059,-4.0049,-4.0083,-4.0152,-4.0225,-4.0241,-4.0256,-4.031,-4.0329,-4.0096,-4.0096,-4.0096,0,-3.9139,-3.926,-3.9279,-3.9369,-3.9417,-3.9412,-3.9507,-3.9554,-3.9648,-3.9683,-3.9654,-3.9828,-3.9876,-4.0014,-4.0051,-4.0087,-4.0115,-4.0073,-4.0237,-4.0252,-4.0266,-4.0318,-4.0339,-4.0099,-4.0099,-4.0099,-4.0098,0,-3.9314,-3.9398,-3.9464,-3.9556,-3.9613,-3.9705,-3.974,-3.9796,-3.9802,-3.9833,-3.995,-4.0008,-4.0097,-4.0131,-4.0138,-4.0272,-4.0255,-4.0232,-4.018,-4.029,-4.0339,-4.0359,-4.0105,-4.0103,-4.0102,-4.0101,0,0,-3.9454,-3.956,-3.9584,-3.9627,-3.971,-3.9776,-3.987,-3.9958,-4.0006,-4.0073,-4.0153,-4.0272,-4.0252,-4.0303,-4.0316,-4.038,-4.0497,-4.035,-4.0352,-4.0375,-4.0651,-4.0667,-4.069,-4.0492,-4.0496,-4.0499,-4.0645,0,-3.9585,-3.9748,-3.9771,-3.9916,-3.9997,-3.9996,-4.0078,-4.0138,-4.0171,-4.0245,-4.0282,-4.0366,-4.0333,-4.0364,-4.0428,-4.0469,-4.0552,-4.0459,-4.0568,-4.0571,-4.0548,-4.0715,-4.0731,-4.0866,-4.0665,-4.0668,-4.067,0,-3.9757,-3.983,-3.9983,-4.0059,-4.0094,-4.0166,-4.0251,-4.0322,-4.0393,-4.0412,-4.0472,-4.0478,-4.0578,-4.0524,-4.0662,-4.0598,-4.0645,-4.0673,-4.0679,-4.0688,-4.0626,-4.0729,-4.0909,-4.093,-4.0701,-4.0698,-4.0696,0,-3.9845,-3.9982,-4.0092,-4.013,-4.022,-4.0272,-4.0313,-4.038,-4.0433,-4.0508,-4.0543,-4.0629,-4.0676,-4.0743,-4.0774,-4.0732,-4.0912,-4.086,-4.0932,-4.0931,-4.0967,-4.0964,-4.1157,-4.1,-4.0999,-4.0999,-4.0998,0,-3.9987,-4.0081,-4.0133,-4.0201,-4.0308,-4.0336,-4.0441,-4.048,-4.0541,-4.0618,-4.0624,-4.0696,-4.0733,-4.0812,-4.0837,-4.0949,-4.0971,-4.099,-4.0996,-4.0989,-4.0987,-4.1018,-4.101,-4.1004,-4.1003,-4.1002,-4.1001,0,-4.0101,-4.014,-4.0261,-4.0338,-4.0361,-4.0436,-4.0503,-4.057,-4.0605,-4.0703,-4.0727,-4.0781,-4.0875,-4.0913,-4.1028,-4.1045,-4.1174,-4.1173,-4.115,-4.1151,-4.1221,-4.1214,-4.1441,-4.1473,-4.1294,-4.1296,-4.1297,0,-4.0188,-4.0261,-4.0348,-4.04,-4.0442,-4.0526,-4.0581,-4.0613,-4.067,-4.076,-4.0817,-4.0911,-4.0987,-4.1138,-4.1188,-4.1277,-4.1278,-4.1351,-4.1291,-4.1283,-4.1279,-4.1274,-4.1282,-4.1361,-4.1363,-4.1365,-4.1366,0,-4.0339,-4.0356,-4.0434,-4.0522,-4.0588,-4.0657,-4.0726,-4.0769,-4.0812,-4.0877,-4.0973,-4.1033,-4.1152,-4.1246,-4.1339,-4.1382,-4.1382,-4.1385,-4.1407,-4.14,-4.1384,-4.1394,-4.118,-4.1379,-4.1378,-4.1377,-4.1376,-4.1375,-4.0443,-4.0509,-4.0581,-4.067,-4.0725,-4.079,-4.0858,-4.0902,-4.0983,-4.1082,-4.1097,-4.1201,-4.1275,-4.14,-4.1448,-4.1531,-4.1512,-4.1543,-4.155,-4.1557,-4.1562,-4.1372,-4.1548,-4.1548,-4.1547,-4.1547,-4.1547,0,-4.0594,-4.0642,-4.0723,-4.082,-4.0891,-4.0886,-4.0963,-4.1023,-4.1114,-4.1183,-4.1259,-4.1372,-4.1465,-4.1525,-4.1619,-4.1674,-4.1677,-4.1698,-4.1693,-4.1704,-4.1573,-4.1545,-4.1694,-4.1694,-4.1694,-4.1694,-4.1694,-4.1694,-4.0681,-4.0793,-4.0819,-4.096,-4.1008,-4.1109,-4.1154,-4.1215,-4.1271,-4.1397,-4.1474,-4.1513,-4.1579,-4.1679,-4.1765,-4.1781,-4.1815,-4.1837,-4.1852,-4.1728,-4.1713,-4.1698,-4.1672,-4.1845,-4.1845,-4.1975,-4.1977,-4.1978]},{"header":{"parameterUnit":"m.s-1","parameterCategory":1,"la1":30.2991,"la2":30.254,"lo1":-89.0895,"lo2":-89.0444,"dy":0.0017,"dx":0.0017,"nx":28,"ny":28,"refTime":"2026-02-17T03:00:00:Z","depth":0,"parameterNumber":3,"parameterNumberName":"V-component_of_WINDS"},"data":[0,0,0,0,0,0,0,0,0,0,0,0,0,0,0,0,0,0,0,0,0,0,0,0,0,0,0,0,0,0,0,0,0,0,0,0,0,0,0,0,0,0,0,0,0,0,0,0,0,0,0,0,0,0,0,0,0,0,2.2478,2.2478,0,2.2479,2.2479,2.2479,2.2523,2.2524,2.2525,2.2526,2.2522,2.2521,2.252,0,0,0,0,0,0,0,0,0,0,0,0,0,2.251,2.251,2.2478,2.2478,2.2478,2.2479,2.2479,2.2479,2.2523,2.2524,2.2525,2.2527,2.2522,2.2521,2.252,0,0,0,0,0,0,0,0,0,0,0,0,0,2.2502,2.2509,2.2478,2.25,2.2502,2.2479,2.2479,2.2479,2.2522,2.2524,2.2526,2.2527,2.2523,2.2521,2.2519,2.2473,0,0,2.2514,2.2513,0,0,0,0,0,0,0,0,2.2502,2.2501,2.2497,2.2498,2.2501,2.2503,2.2489,2.2477,2.2522,2.2514,2.2526,2.2528,2.2514,2.2513,2.2509,2.2473,2.2473,2.2514,2.2513,2.2512,2.2511,0,0,0,0,0,0,0,2.2503,2.2501,2.2478,2.2497,2.2499,2.2509,2.2509,2.2487,2.2504,2.2515,2.2518,2.2518,2.2515,2.2511,2.2509,2.2473,2.2514,2.2512,2.2511,2.251,2.24,2.2398,0,0,0,0,0,0,2.2501,2.2501,2.2478,2.2478,2.2506,2.2507,2.2507,2.25,2.2505,2.2507,2.2517,2.252,2.2513,2.2511,2.2509,2.2456,2.2512,2.251,2.2509,2.2402,2.24,2.2398,0,0,0,0,0,0,2.2502,2.2499,2.2478,2.2491,2.2489,2.2504,2.2495,2.2499,2.2495,2.2506,2.2509,2.2509,2.2514,2.2512,2.2482,2.2456,2.2509,2.2508,2.2404,2.2401,2.2399,2.2349,0,0,0,0,0,0,2.2502,2.2499,2.2482,2.249,2.2488,2.2452,2.2494,2.2498,2.2492,2.2497,2.2499,2.2501,2.2515,2.2485,2.2481,2.2455,2.2506,2.2406,2.2403,2.2399,2.2353,2.2345,2.2338,0,0,0,0,0,2.2503,2.2467,2.2481,2.2478,2.2468,2.245,2.2449,2.2467,2.249,2.2473,2.248,2.2501,2.246,2.2482,2.2477,2.245,2.2408,2.2404,2.24,2.2356,2.2346,2.2338,0,0,0,0,0,0,2.2453,2.2468,2.2484,2.2449,2.2448,2.2458,2.2437,2.2456,2.2448,2.2452,2.2474,2.2474,2.2441,2.2443,2.2466,2.2406,2.2438,2.2433,2.2406,2.2397,2.239,2.2389,2.2505,0,0,0,0,0,2.2438,2.2425,2.2438,2.2405,2.2405,2.2421,2.2414,2.2428,2.2428,2.2427,2.2432,2.243,2.2417,2.2407,2.2395,2.2354,2.2355,2.2333,2.2326,2.2319,2.2314,2.2293,2.2283,2.2384,2.2384,2.2384,0,0,2.2407,2.2413,2.2403,2.2396,2.2397,2.2381,2.242,2.2401,2.239,2.2424,2.2397,2.2401,2.2399,2.2364,2.2348,2.2364,2.2287,2.2314,2.2309,2.2307,2.2287,2.2278,2.2269,2.2381,2.2381,2.2382,0,0,2.2341,2.2345,2.2319,2.232,2.2322,2.2334,2.2327,2.2335,2.2339,2.2313,2.2339,2.2324,2.2301,2.2299,2.2295,2.223,2.2249,2.2226,2.2186,2.2165,2.2157,2.215,2.2127,2.2118,2.2221,2.2221,2.2221,0,2.2301,2.228,2.2303,2.2283,2.2279,2.2312,2.2285,2.2284,2.2281,2.2277,2.2296,2.2268,2.2269,2.2234,2.2219,2.2214,2.2207,2.2225,2.2156,2.215,2.2143,2.2121,2.2113,2.2218,2.2218,2.2218,2.2219,0,2.2231,2.2216,2.2194,2.2193,2.2187,2.2163,2.2182,2.2172,2.2187,2.2196,2.2169,2.2172,2.2162,2.2155,2.2169,2.2122,2.2132,2.2153,2.2185,2.2131,2.211,2.2102,2.2214,2.2215,2.2216,2.2216,0,0,2.2132,2.2146,2.2137,2.2138,2.2143,2.2131,2.2109,2.2101,2.2093,2.209,2.2072,2.2052,2.2072,2.2067,2.2081,2.2063,2.2012,2.2086,2.2087,2.2072,2.196,2.1944,2.1934,2.2025,2.2024,2.2022,2.196,0,2.2069,2.2034,2.2055,2.2016,2.2002,2.2034,2.2014,2.2015,2.2023,2.2012,2.202,2.2006,2.2033,2.2031,2.2014,2.2022,2.1989,2.2026,2.2007,2.2006,2.2006,2.1923,2.1906,2.1846,2.1952,2.1951,2.195,0,2.199,2.1987,2.1947,2.1957,2.1951,2.1934,2.1929,2.1918,2.1919,2.1926,2.1922,2.1941,2.1919,2.1952,2.1921,2.1946,2.194,2.1942,2.194,2.1938,2.1974,2.1918,2.1828,2.1819,2.1938,2.1939,2.194,0,2.1922,2.1907,2.1882,2.1881,2.1891,2.1879,2.1882,2.1885,2.1879,2.1874,2.1871,2.1862,2.1857,2.185,2.1866,2.1888,2.1833,2.1867,2.1838,2.1837,2.1824,2.1824,2.1731,2.1821,2.1821,2.1821,2.1821,0,2.1849,2.1824,2.1852,2.1836,2.1808,2.1832,2.1803,2.181,2.1813,2.1798,2.1824,2.181,2.1832,2.1819,2.1831,2.1804,2.1802,2.1806,2.181,2.1804,2.1803,2.1799,2.1803,2.1819,2.1819,2.182,2.182,0,2.1768,2.1786,2.1761,2.1773,2.1776,2.1755,2.1765,2.175,2.1761,2.1742,2.1739,2.1755,2.1741,2.1757,2.1744,2.1752,2.1716,2.1725,2.1716,2.1718,2.1688,2.169,2.1587,2.1575,2.1674,2.1673,2.1672,0,2.172,2.1702,2.1713,2.1706,2.1708,2.1696,2.1691,2.1714,2.1707,2.1708,2.1693,2.1682,2.1675,2.1651,2.1661,2.1651,2.1661,2.1625,2.1659,2.1654,2.1659,2.166,2.1658,2.1618,2.1617,2.1616,2.1615,0,2.1633,2.1643,2.1636,2.1631,2.1625,2.1622,2.1621,2.1613,2.1637,2.1627,2.1615,2.1609,2.1598,2.1586,2.158,2.1582,2.1602,2.1605,2.1597,2.159,2.1585,2.1587,2.1696,2.1606,2.1607,2.1608,2.1608,2.1609,2.1567,2.1552,2.1558,2.1549,2.1551,2.155,2.1537,2.1547,2.1537,2.1531,2.1544,2.1528,2.153,2.1524,2.1524,2.1511,2.1526,2.1515,2.1512,2.1509,2.1505,2.1588,2.151,2.151,2.151,2.1511,2.1511,0,2.1481,2.1487,2.1478,2.1477,2.1469,2.1491,2.1491,2.1483,2.147,2.1471,2.1464,2.1449,2.1439,2.1448,2.1439,2.1427,2.1436,2.1424,2.1425,2.1425,2.1492,2.1499,2.1417,2.1417,2.1417,2.1417,2.1417,2.1417,2.1435,2.1412,2.1423,2.14,2.1406,2.1392,2.139,2.1389,2.139,2.1373,2.1366,2.1373,2.1377,2.1369,2.136,2.1363,2.1358,2.1342,2.1348,2.1411,2.142,2.1429,2.1436,2.1341,2.1341,2.1282,2.1282,2.1281]}]]